星链-3734 (STARLINK-3734 )

导读

STARLINK-3734是美国太空探索技术公司(SpaceX)星链互联网卫星星座中的一员,于2022年3月19日发射入轨,归属星链项目低轨卫星组网计划,主要为全球提供高速卫星互联网接入服务。星链持续推进大规模部署,该卫星是星座扩容的组成部分,服务全球偏远地区网络覆盖需求。

基本信息
目录编号:
52112
目录名称:
STARLINK-3734
国际标识:
2022-029AA
轨道中心:
EARTH
卫星名称:
星链-3734
卫星全名:
星链-3734 (STARLINK-3734 )
卫星状态:
在轨 (已飞行1551 天)
发射日期:
2022-03-19 UTC
国别 :
美国 (US)
星等 :
--
轨道信息
数据来源 国际轨道数据
星历时间: 2026-06-17T12:00:02+0800
11小时前
查看轨道信息
半长轴: 6787.838km
偏心率: 0.000124
轨道倾角: 53.217°
近地点辐角 72.956°
升交点赤经 339.922°
平近点角 212.084°
近地点: 408.859km
远地点: 410.543km
周期: 92.759分钟
每日圈数: 15.524072
详细信息
固有亮度:
5
最大亮度:
2.5
卫星平台:
Starlink v1.5
覆盖范围:
全球
运营商:
太空探索技术公司
运营商所在国:
美国
制造商(研发单位):
太空探索技术公司
制造商所在国:
美国
使用方式:
暂无
卫星简介
星链(Starlink)计划是由太空探索技术公司(SpaceX)提出的一个巨型低轨卫星互联网星座项目,计划在2019年至2024年间在太空搭建由约1.2万颗卫星组成的“星链”网络,其中1584颗将部署在地球上空550千米处的近地轨道,并从2020年开始工作。该卫星仍在工作。
2D轨道图
3D轨道图
轨道高度分析图
轨道倾角分析图
轨道综合分析图
查看轨道综合分析图